Weather History for Sexton Summit, OR

Change the Weather History Date:

Wednesday, November 7, 2012

  Actual Average Record
Temperature  
Mean Temperature 40 °F -  
Max Temperature 46 °F 46 °F 64 °F (2004)
Min Temperature 33 °F 36 °F 30 °F (2005)
Degree Days  
Heating Degree Days 26    
Moisture  
Dew Point 37 °F    
Average Humidity 93    
Maximum Humidity 100    
Minimum Humidity 76    
Precipitation  
Precipitation 0.03 in - - ()
Sea Level Pressure  
Sea Level Pressure 30.05 in    
Wind  
Wind Speed 8 mph (North)    
Max Wind Speed 13 mph    
Max Gust Speed 20 mph    
Visibility 5 miles    
Events Fog , Rain    
Averages and records for this station are not official NWS values.
T = Trace of Precipitation, MM = Missing Value Source: NWS Daily Summary

Daily Weather History Graph

Daily Weather History Graph

Search for Another Location

Airport:

Trip Planner

Search our weather history database for the weather conditions in past years. The results will help you decide how hot, cold, wet, or windy it might be!

Date:

Astronomy

Nov. 07, 2012 Rise Set
Actual Time 6:55 AM PST 4:58 PM PST
Civil Twilight 6:25 AM PST 5:28 PM PST
Nautical Twilight 5:52 AM PST 6:01 PM PST
Astronomical Twilight 5:19 AM PST 6:34 PM PST
Moon No Moon Rise 1:18 PM PST (11/7)
Length of Visible Light 11h 02m
Length of Day
10h 02m
Last Quarter, 42% of the Moon is Illuminated
Nov 7
Last Quarter
Nov 13
New
Nov 20
First Quarter
Nov 28
Full
Dec 6
Last Quarter

Hourly Weather History & Observations

Time (PST) Temp. Windchill Dew Point Humidity Pressure Visibility Wind Dir Wind Speed Gust Speed Precip Events Conditions
12:35 AM 46.4 °F 41.1 °F 44.6 °F 93% 30.12 in 0.2 mi NNW 11.5 mph - 0.00 in Fog , Rain Light Rain
12:56 AM 46.0 °F 41.4 °F 45.0 °F 96% 30.05 in 0.2 mi NNW 9.2 mph - 0.00 in Fog , Rain Light Rain
1:56 AM 45.0 °F 40.1 °F 44.1 °F 97% 30.05 in 0.2 mi NNW 9.2 mph - 0.00 in Fog , Rain Light Rain
2:56 AM 44.1 °F 40.8 °F 43.0 °F 96% 30.06 in 0.2 mi Variable 5.8 mph - 0.00 in Fog Fog
3:20 AM 42.8 °F 38.6 °F 42.8 °F 100% 30.11 in 0.5 mi NNW 6.9 mph - 0.00 in Fog , Rain Light Rain
3:56 AM 43.0 °F 38.2 °F 42.1 °F 97% 30.06 in 0.5 mi North 8.1 mph - 0.01 in Fog , Rain Light Rain
4:13 AM 42.8 °F 38.0 °F 42.8 °F 100% 30.11 in 0.2 mi North 8.1 mph 18.4 mph 0.01 in Fog , Rain Light Rain
4:34 AM 42.8 °F 37.5 °F 42.8 °F 100% 30.12 in 0.5 mi North 9.2 mph 18.4 mph 0.01 in Fog , Rain Light Rain
4:56 AM 42.1 °F 38.4 °F 42.1 °F 100% 30.07 in 0.5 mi Variable 5.8 mph - 0.02 in Fog Fog
5:32 AM 42.8 °F 40.1 °F 42.8 °F 100% 30.12 in 0.2 mi Variable 4.6 mph - N/A Fog Fog
5:56 AM 42.1 °F 39.2 °F 42.1 °F 100% 30.08 in 0.2 mi Variable 4.6 mph - N/A Fog Fog
6:26 AM 41.0 °F 37.1 °F 41.0 °F 100% 30.12 in 0.5 mi North 5.8 mph - N/A Fog Fog
6:37 AM 41.0 °F 35.8 °F 41.0 °F 100% 30.12 in 0.2 mi North 8.1 mph - N/A Fog Fog
6:56 AM 39.9 °F 34.5 °F 39.0 °F 97% 30.08 in 0.2 mi North 8.1 mph - N/A Fog Fog
7:14 AM 37.4 °F 32.1 °F 37.4 °F 100% 30.12 in 0.2 mi Variable 6.9 mph - N/A Fog Fog
7:54 AM 35.6 °F 28.0 °F 35.6 °F 100% 30.13 in 1.2 mi North 10.4 mph 18.4 mph N/A   Mostly Cloudy
7:56 AM 36.0 °F 28.0 °F 35.1 °F 97% 30.12 in 1.2 mi North 11.5 mph 18.4 mph N/A   Mostly Cloudy
8:12 AM 35.6 °F 28.6 °F 33.8 °F 93% 30.12 in 2.5 mi North 9.2 mph 19.6 mph N/A   Scattered Clouds
8:19 AM 35.6 °F 28.0 °F 33.8 °F 93% 30.13 in 3.0 mi North 10.4 mph - N/A   Scattered Clouds
8:30 AM 35.6 °F 28.6 °F 33.8 °F 93% 30.13 in 2.5 mi North 9.2 mph - N/A   Partly Cloudy
8:39 AM 35.6 °F 27.1 °F 33.8 °F 93% 30.12 in 5.0 mi North 12.7 mph 18.4 mph N/A   Partly Cloudy
8:56 AM 36.0 °F 28.5 °F 34.0 °F 93% 30.12 in 8.0 mi North 10.4 mph 17.3 mph N/A   Partly Cloudy
9:56 AM 36.0 °F 28.5 °F 35.1 °F 97% 30.11 in 10.0 mi North 10.4 mph - N/A   Clear
10:56 AM 37.9 °F 32.7 °F 35.1 °F 89% 30.10 in 10.0 mi North 6.9 mph - N/A   Clear
11:56 AM 41.0 °F 38.0 °F 36.0 °F 82% 30.08 in 10.0 mi Variable 4.6 mph - N/A   Clear
12:56 PM 42.1 °F - 35.1 °F 76% 30.06 in 10.0 mi Calm Calm - N/A   Clear
1:56 PM 41.0 °F 37.1 °F 35.1 °F 79% 30.06 in 10.0 mi NNW 5.8 mph - N/A   Clear
2:56 PM 39.0 °F 34.8 °F 34.0 °F 82% 30.05 in 10.0 mi NNW 5.8 mph - N/A   Clear
3:56 PM 37.9 °F 31.5 °F 33.1 °F 83% 30.04 in 10.0 mi North 9.2 mph - N/A   Clear
4:56 PM 37.9 °F 30.9 °F 30.9 °F 76% 30.03 in 10.0 mi North 10.4 mph - N/A   Clear
5:56 PM 37.0 °F 29.8 °F 30.0 °F 76% 30.01 in 10.0 mi NNE 10.4 mph - N/A   Clear
6:56 PM 36.0 °F 29.6 °F 30.9 °F 82% 30.00 in 10.0 mi North 8.1 mph - N/A   Mostly Cloudy
7:56 PM 36.0 °F 30.3 °F 32.0 °F 86% 29.99 in 10.0 mi NNW 6.9 mph - N/A   Overcast
8:56 PM 36.0 °F 29.0 °F 32.0 °F 86% 29.97 in 10.0 mi North 9.2 mph - N/A   Overcast
9:56 PM 36.0 °F 29.6 °F 32.0 °F 86% 29.95 in 10.0 mi NNW 8.1 mph - N/A   Overcast
10:56 PM 34.0 °F 27.2 °F 32.0 °F 92% 29.92 in 10.0 mi North 8.1 mph - N/A   Overcast
11:31 PM 33.8 °F 28.6 °F 33.8 °F 100% 29.87 in 9.0 mi NNW 5.8 mph - N/A   Overcast
11:40 PM 33.8 °F 27.7 °F 33.8 °F 100% 29.86 in 8.0 mi NNW 6.9 mph - N/A   Overcast
11:47 PM 33.8 °F 28.6 °F 33.8 °F 100% 29.86 in 5.0 mi NNW 5.8 mph - N/A   Overcast
11:56 PM 34.0 °F 27.2 °F 33.1 °F 96% 29.89 in 2.0 mi NNW 8.1 mph - N/A   Overcast